Location: San Ignacio Observatory
(34.9291°N, 104.9425°W)
Time: 01:42:48
(UTC-07:00)

OTV 5 (USA 277) - Visible Passes

Search period start: 11 December 2018 00:00
Search period end: 21 December 2018 00:00
Orbit: 340 x 348 km, 54.5° (Epoch: 10 December)

Date Brightness Start Highest point End Pass type
(mag) Time Alt. Az. Time Alt. Az. Time Alt. Az.
11 Dec ? 06:11:38 10° NNE 06:11:58 10° NNE 06:12:19 10° NE visible
14 Dec ? 05:46:40 16° N 05:48:20 27° NE 05:50:49 10° ESE visible
15 Dec ? 06:09:48 15° NW 06:12:01 67° SW 06:14:49 10° SE visible
16 Dec ? 05:01:35 22° ENE 05:01:35 22° ENE 05:03:12 10° E visible
17 Dec ? 05:24:53 56° SSE 05:24:53 56° SSE 05:27:16 10° SE visible
18 Dec ? 05:48:16 15° SW 05:48:16 15° SW 05:49:43 10° SSW visible
